Masthead Graphic

Historical weather data from Belfast International Airport

The table below shows the weather reports for the last 24 hours taken from the METAR weather bulletins issued by Belfast International Airport. Readings should be at 30 min intervals however they are not always available

Date Time Pressure mb Temp. Wind Kts Wind Dir. Gusts Kts Conditions
21/02/2019 20:20:00 1021 9 6 170 clear skies
21/02/2019 19:50:00 1021 9 8 150 clear skies
21/02/2019 19:20:00 1021 9 6 140 clear skies
21/02/2019 18:50:00 1021 10 4 140 mostly cloudy
21/02/2019 18:20:00 1021 10 6 170 mostly cloudy
21/02/2019 17:50:00 1020 11 10 190 partly cloudy
21/02/2019 17:20:00 1020 11 7 170 partly cloudy
21/02/2019 16:20:00 1020 13 9 170 partly cloudy
21/02/2019 15:50:00 1019 13 10 190 partly cloudy
21/02/2019 15:20:00 1019 13 10 180 partly cloudy
21/02/2019 14:50:00 1019 13 12 180 partly cloudy
21/02/2019 14:20:00 1019 13 12 180 partly cloudy
21/02/2019 13:50:00 1019 13 11 190 partly cloudy
21/02/2019 13:20:00 1019 13 13 180 partly cloudy
21/02/2019 12:50:00 1018 13 12 180 scattered clouds
21/02/2019 12:20:00 1018 13 13 190 mostly cloudy
21/02/2019 11:50:00 1018 13 12 180 mostly cloudy
21/02/2019 11:20:00 1018 12 9 180 mostly cloudy
21/02/2019 10:50:00 1018 12 12 180 mostly cloudy
21/02/2019 10:20:00 1017 12 13 190 mostly cloudy
21/02/2019 09:50:00 1017 12 12 190 mostly cloudy
21/02/2019 09:20:00 1017 12 8 190 mostly cloudy
21/02/2019 08:50:00 1016 12 11 180 mostly cloudy
21/02/2019 08:20:00 1016 12 9 180 mostly cloudy
21/02/2019 07:50:00 1015 12 10 180 mostly cloudy
Next Last